Tracking 20724 objects as of 2-Jun-2020
HD Live streaming from Space Station
objects crossing your sky now

COSMOS 2144

Track COSMOS 2144 now!
10-day predictions
COSMOS 2144 is classified as:


NORAD ID: 21300
Int'l Code: 1991-033B
Perigee: 1,416.2 km
Apogee: 1,424.8 km
Inclination: 82.6 °
Period: 114.1 minutes
Semi major axis: 7791 km
RCS: 1.1059 m2 (large)
Launch date: May 16, 1991
Source: Commonwealth of Independent States (former USSR) (CIS)
Launch site: PLESETSK MISSILE AND SPACE COMPLEX (PKMTR)
aabbcc
Your satellite tracking list
Your tracking list is empty




NASA's NSSDC Master Catalog

Two Line Element Set (TLE):
1 21300U 91033B   20154.44142213  .00000022  00000-0  62890-4 0  9998
2 21300  82.5761 297.0738 0005480  75.0072 285.1626 12.62324101338467
Source of the keplerian elements: AFSPC